CDT,Max TemperatureF,Mean TemperatureF,Min TemperatureF,Max Dew PointF,MeanDew PointF,Min DewpointF,Max Humidity, Mean Humidity, Min Humidity, Max Sea Level PressureIn, Mean Sea Level PressureIn, Min Sea Level PressureIn, Max VisibilityMiles, Mean VisibilityMiles, Min VisibilityMiles, Max Wind SpeedMPH, Mean Wind SpeedMPH, Max Gust SpeedMPH,PrecipitationIn, CloudCover, Events, WindDirDegrees
2013-10-1,76,62,49,51,41,31,82,50,19,30.01,29.93,29.74,10,10,10,17,6,25,0.00,0,,34
2013-10-2,82,64,47,64,55,43,94,75,47,29.98,29.88,29.79,10,10,7,16,4,23,0.22,4,Rain-Thunderstorm,144
2013-10-3,63,58,53,60,56,53,99,92,81,29.84,29.81,29.78,10,9,3,14,5,22,0.01,5,Rain-Thunderstorm,44
2013-10-4,77,58,40,65,54,32,99,80,50,29.88,29.73,29.59,10,10,3,22,13,37,0.25,5,Rain-Thunderstorm,125
2013-10-5,45,42,38,37,32,28,93,71,61,29.89,29.84,29.81,10,10,7,23,14,39,0.00,6,Rain,273
2013-10-6,60,50,39,44,37,26,97,73,27,30.07,29.94,29.82,10,9,2,26,16,34,0.00,5,Rain,321
2013-10-7,74,54,33,45,39,32,92,61,29,30.08,30.02,29.94,10,10,10,13,5,17,0.00,0,,211
2013-10-8,78,62,46,44,40,38,75,47,24,29.93,29.86,29.78,10,10,10,26,11,34,0.00,0,,165
2013-10-9,77,64,50,51,47,44,82,57,31,29.94,29.90,29.86,10,10,10,18,11,29,0.00,0,,150
2013-10-10,78,66,53,56,53,50,89,65,41,29.93,29.83,29.69,10,10,10,21,11,32,0.00,0,,152
2013-10-11,69,56,45,56,47,38,81,63,34,29.93,29.68,29.56,10,10,10,28,16,36,0.00,3,Rain,213
2013-10-12,63,49,35,38,31,26,84,51,25,30.29,30.13,29.93,10,10,10,20,8,28,0.00,0,,315
2013-10-13,67,49,31,38,32,29,91,57,26,30.39,30.31,30.22,10,10,10,18,4,25,0.00,1,Rain-Thunderstorm,143
2013-10-14,57,51,45,57,47,37,99,90,51,30.25,29.93,29.67,10,8,0,23,10,32,1.13,8,Rain-Thunderstorm,119
2013-10-15,46,44,40,41,35,32,82,73,68,30.11,29.98,29.80,10,10,10,28,20,40,0.00,8,,309
2013-10-16,55,44,34,36,33,28,91,65,37,30.11,30.03,29.93,10,10,10,12,6,17,0.00,3,,304
2013-10-17,48,39,30,38,33,28,93,76,62,30.09,29.97,29.88,10,10,10,26,7,32,0.00,4,,324
2013-10-18,51,38,27,33,27,21,88,66,33,30.13,30.07,30.00,10,10,7,12,3,,0.00,3,,310
2013-10-19,61,46,32,35,31,27,84,64,33,30.00,29.87,29.78,10,10,10,16,3,18,0.00,2,,302
2013-10-20,61,48,33,39,35,31,90,61,38,30.05,29.84,29.72,10,10,10,26,7,34,0.00,3,,326
2013-10-21,56,42,28,36,31,26,93,70,38,30.08,30.01,29.92,10,10,10,15,2,21,0.00,5,Rain,307
2013-10-22,50,38,28,41,36,26,92,74,57,30.12,30.01,29.90,10,10,10,22,8,31,0.00,5,Rain,328
2013-10-23,56,42,27,40,34,25,94,79,52,30.23,30.10,30.01,10,10,10,15,4,21,0.00,5,,1
2013-10-24,49,38,26,33,25,17,90,66,30,30.40,30.34,30.24,10,10,7,13,5,17,0.00,1,,325
2013-10-25,59,42,26,35,31,24,90,61,37,30.36,30.20,30.05,10,10,5,22,6,29,0.00,3,,198
2013-10-26,50,39,28,37,29,23,83,62,36,30.26,30.17,30.03,10,10,5,17,6,28,0.00,0,,338
2013-10-27,70,48,27,39,32,24,87,55,29,30.11,29.92,29.80,10,10,4,16,4,23,0.00,0,Rain,152
2013-10-28,47,41,35,36,33,30,84,72,55,30.20,30.13,29.99,10,10,5,20,12,29,0.09,3,Rain-Thunderstorm,50
2013-10-29,41,40,38,41,39,36,99,95,85,30.16,30.04,29.97,10,4,2,12,8,16,0.01,8,Rain,26
2013-10-30,45,37,30,40,37,28,99,94,78,30.02,29.88,29.77,10,8,3,12,7,16,0.05,6,Rain-Thunderstorm,324
2013-10-31,55,41,27,40,32,26,98,73,40,29.77,29.62,29.53,10,8,3,22,5,31,0.00,2,,311